#timestamp,LO_Frequency,Hit,StdDev 
1561413615.5,286046997.5,N
1561413635.3,286046996.2,N
1561413655.1,286046993.7,Y
1561413675.9,286046994.4,P
1561413695.7,286046994.2,N
1561413715.5,286046995.6,N
1561413735.4,286046996.4,N
1561413755.2,286046993.3,Y
1561413775.0,286046998.5,P
1561413775.9,286046998.5,N
1561413795.8,286047001.0,N
1561413815.6,286047000.0,N
1561413835.4,286047000.0,N
1561413855.3,286047000.6,N
1561413875.1,286047000.1,N
1561413895.8,286046999.9,N
1561413915.7,286047001.6,N
1561413935.5,286047004.2,N
1561413955.3,286047003.4,N
1561413975.2,286047005.8,N
1561413995.0,286047005.2,N
1561413995.9,286047005.2,N
1561414015.7,286047004.6,N
1561414035.6,286047006.0,N
1561414055.4,286047005.1,N
1561414075.2,286047005.3,N
1561414095.1,286047005.2,N
1561414096.0,286047005.2,N
1561414115.8,286047007.1,N
1561414135.6,286047007.0,N
1561414155.5,286047006.6,N
1561414175.3,286047009.0,N
1561414195.1,286047007.0,N
1561414215.9,286047007.0,N
1561414235.7,286047004.6,N
1561414255.5,286047005.4,N
1561414275.4,286047005.5,N
1561414295.2,286047004.9,N
1561414315.0,286047005.2,N
1561414315.9,286047005.2,N
1561414335.8,286047005.3,N
1561414355.6,286047005.4,N
1561414375.4,286047002.9,N
1561414395.3,286047007.2,Y
1561414415.1,286047003.9,P
1561414416.0,286047003.9,P
1561414435.8,286047001.5,P
1561414455.7,286047003.2,N
1561414475.5,286047001.3,N
1561414495.3,286047003.9,N
1561414515.2,286047004.0,Y
1561414535.0,286046998.5,P
1561414535.9,286046998.5,N
1561414555.7,286046998.2,N
1561414575.6,286046998.3,N
1561414595.4,286047000.8,N
1561414615.2,286046998.9,N
1561414635.1,286046998.3,N
1561414636.0,286046998.3,N
1561414655.8,286046999.2,N
1561414675.6,286046999.6,N
1561414695.5,286046996.5,N
1561414715.3,286046997.1,N
1561414735.1,286046996.9,N
1561414755.9,286046997.2,N
1561414775.7,286046995.0,Y
1561414795.5,286046998.4,P
1561414815.4,286046998.4,P
1561414835.2,286046998.2,P
1561414855.0,286047000.7,Y
1561414855.9,286047000.7,P
1561414875.8,286047002.0,N
1561414895.6,286047002.1,N
1561414915.4,286047002.2,N
1561414935.3,286047002.4,N
1561414955.1,286047002.3,N
1561414975.8,286047002.8,N
1561414995.7,286047002.0,N
1561415015.5,286047003.6,N
1561415035.3,286047004.3,Y
1561415055.2,286047001.5,P
1561415075.9,286047004.1,P
1561415095.7,286047002.0,N
1561415115.6,286047001.9,N
1561415135.4,286047004.4,Y
1561415155.2,286047000.5,P
1561415175.1,286047000.8,N
1561415176.0,286047000.8,N
1561415195.8,286046998.5,N
1561415215.6,286046999.7,N
1561415235.5,286047004.0,Y
1561415255.3,286047003.7,P
1561415275.1,286047005.5,P
1561415295.9,286047005.4,N
1561415315.7,286047003.6,N
1561415335.5,286047004.2,N
1561415355.4,286047004.1,N
1561415375.2,286047004.2,N
1561415395.0,286047004.4,N
1561415395.9,286047004.4,Y
1561415415.8,286046999.6,P
1561415435.6,286046999.2,N
1561415455.4,286046999.3,N
1561415475.3,286046997.9,N
1561415495.1,286046995.1,N
1561415515.8,286046995.3,N
1561415535.7,286046996.5,N
1561415555.5,286046998.8,N
1561415575.3,286046998.7,N
1561415595.2,286046998.3,N
1561415615.0,286046998.5,N
1561415615.9,286046998.5,N
1561415635.7,286046998.9,N
1561415655.6,286047000.6,N
1561415675.4,286046996.9,N
1561415695.2,286046998.3,N
1561415715.1,286046998.7,N
1561415716.0,286046998.7,N
1561415735.8,286046998.1,N
1561415755.6,286046998.2,N
1561415775.5,286047002.7,N
1561415795.3,286047001.9,N
1561415815.1,286047004.1,N
1561415835.9,286047001.7,N
1561415855.7,286047003.1,N
1561415875.5,286047002.0,N
1561415895.4,286047001.1,N
1561415915.2,286046999.3,N
1561415935.0,286046997.8,N
1561415966.0,286046993.3,E
1561415975.9,286046997.3,N
1561415995.7,286047000.3,P
1561416015.5,286047000.5,N
1561416035.4,286047000.1,N
1561416055.2,286047002.0,N
1561416075.0,286047002.6,N
1561416075.9,286047002.6,N
1561416095.8,286046999.9,N
1561416115.6,286047001.0,N
1561416135.4,286047000.7,N
1561416155.3,286047000.2,N
1561416175.1,286047000.0,N
1561416195.8,286047000.7,N
1561416215.7,286046998.8,N
1561416235.5,286046998.5,N
1561416255.3,286046996.8,N
1561416275.2,286046997.3,N
1561416295.9,286046997.7,N
1561416315.7,286046996.7,N
1561416335.6,286046999.3,N
1561416355.4,286046996.7,N
1561416375.2,286046997.4,N
1561416395.1,286046995.4,N
1561416396.0,286046995.4,N
1561416415.8,286046995.9,N
1561416435.6,286046996.0,N
1561416455.5,286046997.3,N
1561416475.3,286046997.6,N
1561416495.1,286046995.2,N
1561416515.9,286046995.9,N
1561416535.7,286046994.9,N
1561416555.5,286046995.6,N
1561416575.4,286046994.1,N
1561416595.2,286046993.1,N
1561416615.0,286046990.2,Y
1561416615.9,286046990.2,P
1561416635.8,286046991.8,N
1561416655.6,286046988.9,P
1561416675.4,286046987.2,Y
1561416695.3,286046995.2,P
1561416715.1,286046997.8,N
1561416735.8,286046995.2,N
1561416755.7,286046997.4,N
1561416775.5,286046995.8,N
1561416795.3,286046996.0,N
1561416815.2,286046993.8,Y
1561416835.0,286047001.2,P
1561416835.9,286047001.2,N
1561416855.7,286046998.3,N
1561416875.6,286046998.3,N
1561416895.4,286046999.2,N
1561416915.2,286046998.4,N
1561416935.1,286046999.1,N
1561416936.0,286046999.1,N
1561416955.8,286047000.8,N
1561416975.6,286046998.5,N
1561416995.5,286046998.2,N
1561417015.3,286047000.8,N
1561417035.1,286047002.0,N
1561417055.9,286047001.7,N
1561417075.7,286047003.6,N
1561417095.5,286047003.8,N
1561417115.4,286047001.7,N
1561417135.2,286047005.7,N
1561417155.0,286047005.3,N
1561417155.9,286047005.3,N
1561417175.8,286047004.5,N
1561417195.6,286047008.5,Y
